Regional Weather Roundup
Issued by NWS Binghamton, NY

Home | Current Version | Previous Version | Text Only | Print | Product List | Glossary On
Versions: 1 2 3 4 5 6 7 8 9 10 11 12 13 14 15 16 17 18 19 20 21 22 23 24 25 26 27 28 29 30 31 32 33 34 35 36 37 38 39 40 41 42 43 44 45 46 47 48 49 50
803
ASUS41 KBGM 231010
RWRBGM

REGIONAL WEATHER ROUNDUP
NATIONAL WEATHER SERVICE BINGHAMTON NY
600 AM EDT MON OCT 23 2017

Note: "fair" indicates few or no clouds below 12,000 feet with no
significant weather and/or obstructions to visibility.

* = Station(s) that does not report precipitation, such as rain,
snow, etc, also no thunder or fog.

NYZ009-015>018-022>025-036-037-044>046-055>057-062-231100
...Central New York...

CITY           SKY/WX    TMP DP  RH WIND       PRES   REMARKS
Binghamton     PTCLDY    52  44  74 S7        30.24F
Cortland       FAIR      52  45  76 CALM      30.23S
Dansville      CLOUDY    58  48  69 SE10      30.16S
Elmira         CLOUDY    52  48  86 CALM      30.20F
Seneca Falls   SUNNY     57  46  67 S12       30.17F
Ithaca         PTCLDY    57  47  69 SE15      30.21S
Hamilton       CLEAR     54  39  58 S9        30.24S
Hornell        CLEAR     54  46  76 SE6       30.21S
Monticello     CLOUDY    54  51  90 SE3       30.33S
Oneonta        CLEAR     52 N/A N/A CALM      30.27F
Penn Yan       MOCLDY    59  47  64 S8        30.17F
Rome           PTCLDY    49  44  83 SE6       30.25F
Sidney         CLEAR     54  48  82 CALM      30.27S
Syracuse       MOCLDY    59  46  62 SE9       30.18F
$$

PAZ038>040-043-044-047-048-072-231100
...Northeast Pennsylvania...

CITY           SKY/WX    TMP DP  RH WIND       PRES   REMARKS
Hazleton       CLOUDY    55  54  94 SE7       30.32S
Scranton       MOCLDY    55  51  86 VRB5      30.28F
$$
&&
KEY
WCI = Wind Chill Index
VSB = Visibility
HX  = Heat Index
$$




USA.gov is the U.S. government's official web portal to all federal, state and local government web resources and services.